Tracking 28792 objects as of 25-Apr-2024
HD Live streaming from Space Station
objects crossing your sky now

STARLINK-31153

Track STARLINK-31153 now!
10-day predictions
STARLINK-31153 is classified as:


NORAD ID: 59044
Int'l Code: 2024-038X
Perigee: 493.5 km
Apogee: 496.3 km
Inclination: 43.0 °
Period: 94.4 minutes
Semi major axis: 6865 km
RCS: Unknown
Launch date: February 25, 2024
Source: United States (US)
Launch site: AIR FORCE EASTERN TEST RANGE (AFETR)
Your satellite tracking list
Your tracking list is empty




NASA's NSSDC Master Catalog

Two Line Element Set (TLE):
1 59044U 24038X   24115.52461571  .00021440  00000-0  82467-3 0  9994
2 59044  43.0026 283.1035 0002057 255.5274 104.5349 15.26006203 10108
Source of the keplerian elements: AFSPC